Location: Lafig�re
(44.4503°N, 4.0357°E)
Time: 07:11:43
(UTC+00:00)

Cosmos 1092 Rocket - Pass Details

Date: 24 January 2021
Orbit: 954 x 994 km, 83.0° (Epoch: 08 March)

Event Time Altitude Azimuth Distance (km) Brightness Sun altitude
Rises 18:31:23 0° 193° (SSW) 3,649 7.3 -19.4°
Reaches altitude 10° 18:33:54 10° 196° (SSW) 2,701 6.6 -19.8°
Maximum altitude 18:40:03 70° 280° (W) 1,021 4.2 -20.9°
Drops below altitude 10° 18:46:13 10° 4° (N) 2,698 6.2 -22.0°
Sets 18:48:44 0° 7° (N) 3,646 6.9 -22.4°
